When you browse on this site, cookies collect data to enhance your experience and personalize the content and advertising you see.
Visit our Privacy Policy to learn more. By continuing to use the site, you agree to this use of cookies and data.
  • In United Kingdom
  • List of Countries
  • For 7 days
  • Water Temperature
  • Satellite Maps
  • Weather Map
  • Weather Widgets
  • user-avatar
    Login

    Hourly Weather Limón

    Today, 12 December, Wednesday

    Time Temperature Precipitation Wind Pressure Humidity
    00:00 +24°C° 0.1 mm 3 mps 761 mmHg 75%
    01:00 +24°C° 0 mm 3 mps 761 mmHg 76%
    02:00 +24°C° 0 mm 3 mps 761 mmHg 78%
    03:00 +24°C° 0 mm 3 mps 760 mmHg 79%
    04:00 +24°C° 0 mm 2 mps 760 mmHg 77%
    05:00 +24°C° 0 mm 2 mps 761 mmHg 75%
    06:00 +24°C° 0 mm 2 mps 761 mmHg 72%
    07:00 +27°C° 0 mm 2 mps 761 mmHg 65%
    08:00 +30°C° 0 mm 1 mps 761 mmHg 57%
    09:00 +32°C° 0 mm 1 mps 762 mmHg 50%
    10:00 +34°C° 0 mm 2 mps 761 mmHg 47%
    11:00 +35°C° 0 mm 2 mps 761 mmHg 44%
    12:00 +35°C° 0 mm 2 mps 760 mmHg 42%
    13:00 +35°C° 0 mm 2 mps 760 mmHg 43%
    14:00 +34°C° 0 mm 2 mps 759 mmHg 45%
    15:00 +32°C° 0 mm 2 mps 759 mmHg 46%
    16:00 +30°C° 0 mm 2 mps 759 mmHg 58%
    17:00 +27°C° 0 mm 2 mps 759 mmHg 70%
    18:00 +25°C° 0 mm 2 mps 759 mmHg 82%
    19:00 +25°C° 0 mm 2 mps 760 mmHg 79%
    20:00 +24°C° 0 mm 2 mps 760 mmHg 76%
    21:00 +24°C° 0 mm 2 mps 761 mmHg 73%
    22:00 +24°C° 0 mm 2 mps 761 mmHg 68%
    23:00 +24°C° 0 mm 2 mps 761 mmHg 62%

    Tomorrow, 13 December, Thursday

    Time Temperature Precipitation Wind Pressure Humidity
    00:00 +24°C° 0 mm 2 mps 760 mmHg 56%
    01:00 +24°C° 0 mm 2 mps 760 mmHg 56%
    02:00 +23°C° 0 mm 2 mps 760 mmHg 56%
    03:00 +23°C° 0 mm 2 mps 759 mmHg 56%
    04:00 +23°C° 0 mm 2 mps 760 mmHg 60%
    05:00 +22°C° 0 mm 3 mps 760 mmHg 63%
    06:00 +22°C° 0 mm 3 mps 760 mmHg 66%
    07:00 +26°C° 0 mm 2 mps 760 mmHg 60%
    08:00 +29°C° 0 mm 2 mps 761 mmHg 55%
    09:00 +32°C° 0 mm 2 mps 761 mmHg 49%
    10:00 +34°C° 0 mm 2 mps 761 mmHg 48%
    11:00 +35°C° 0 mm 2 mps 760 mmHg 47%
    12:00 +35°C° 0 mm 2 mps 760 mmHg 46%
    13:00 +35°C° 0 mm 2 mps 759 mmHg 51%
    14:00 +34°C° 0 mm 2 mps 759 mmHg 55%
    15:00 +32°C° 0 mm 2 mps 758 mmHg 60%
    16:00 +30°C° 0 mm 2 mps 758 mmHg 70%
    17:00 +28°C° 0 mm 2 mps 759 mmHg 81%
    18:00 +26°C° 0 mm 1 mps 759 mmHg 91%
    19:00 +26°C° 0.1 mm 1 mps 760 mmHg 90%
    20:00 +26°C° 0.1 mm 2 mps 760 mmHg 89%
    21:00 +26°C° 0.1 mm 2 mps 761 mmHg 88%
    22:00 +26°C° 0.1 mm 2 mps 760 mmHg 85%
    23:00 +25°C° 0.1 mm 2 mps 760 mmHg 82%

    Day after tomorrow, 14 December, Friday

    Time Temperature Precipitation Wind Pressure Humidity
    00:00 +25°C° 0.1 mm 2 mps 760 mmHg 80%
    01:00 +25°C° 0 mm 2 mps 759 mmHg 77%
    02:00 +25°C° 0 mm 2 mps 759 mmHg 75%
    03:00 +25°C° 0 mm 2 mps 759 mmHg 73%
    04:00 +25°C° 0.1 mm 3 mps 759 mmHg 72%
    05:00 +25°C° 0.1 mm 3 mps 759 mmHg 72%
    06:00 +25°C° 0.1 mm 3 mps 760 mmHg 71%
    07:00 +28°C° 0 mm 3 mps 760 mmHg 66%
    08:00 +30°C° 0 mm 3 mps 760 mmHg 61%
    09:00 +34°C° 0 mm 2 mps 761 mmHg 56%
    10:00 +34°C° 0.1 mm 3 mps 760 mmHg 55%
    11:00 +35°C° 0.1 mm 3 mps 760 mmHg 55%
    12:00 +35°C° 0.1 mm 3 mps 759 mmHg 54%
    13:00 +35°C° 0.3 mm 3 mps 759 mmHg 58%
    14:00 +34°C° 0.3 mm 3 mps 758 mmHg 62%
    15:00 +33°C° 0.3 mm 3 mps 757 mmHg 65%
    16:00 +30°C° 0.8 mm 3 mps 758 mmHg 75%
    17:00 +28°C° 0.8 mm 2 mps 758 mmHg 84%
    18:00 +26°C° 0.8 mm 2 mps 759 mmHg 94%
    19:00 +26°C° 0.6 mm 2 mps 759 mmHg 92%
    20:00 +26°C° 0.6 mm 2 mps 760 mmHg 89%
    21:00 +26°C° 0.6 mm 2 mps 761 mmHg 86%
    22:00 +26°C° 0.3 mm 2 mps 760 mmHg 83%
    23:00 +25°C° 0.3 mm 2 mps 760 mmHg 80%

    15 December, Saturday

    Time Temperature Precipitation Wind Pressure Humidity
    00:00 +25°C° 0.3 mm 2 mps 760 mmHg 77%
    01:00 +25°C° 0.1 mm 2 mps 760 mmHg 77%
    02:00 +25°C° 0.1 mm 2 mps 759 mmHg 76%
    03:00 +25°C° 0.1 mm 3 mps 759 mmHg 76%
    04:00 +25°C° 0.3 mm 3 mps 759 mmHg 77%
    05:00 +25°C° 0.3 mm 3 mps 760 mmHg 77%
    06:00 +25°C° 0.3 mm 3 mps 760 mmHg 78%
    07:00 +27°C° 0.6 mm 3 mps 761 mmHg 73%
    08:00 +29°C° 0.6 mm 3 mps 761 mmHg 68%
    09:00 +32°C° 0.6 mm 2 mps 762 mmHg 63%
    10:00 +32°C° 1.2 mm 2 mps 761 mmHg 63%
    11:00 +32°C° 1.2 mm 2 mps 761 mmHg 64%
    12:00 +32°C° 1.2 mm 2 mps 760 mmHg 64%
    13:00 +32°C° 1.1 mm 2 mps 760 mmHg 65%
    14:00 +31°C° 1.1 mm 2 mps 759 mmHg 67%
    15:00 +31°C° 1.1 mm 1 mps 758 mmHg 68%
    16:00 +29°C° 0.6 mm 2 mps 759 mmHg 73%
    17:00 +27°C° 0.6 mm 2 mps 759 mmHg 78%
    18:00 +25°C° 0.6 mm 3 mps 760 mmHg 83%
    19:00 +25°C° 0.9 mm 2 mps 761 mmHg 81%
    20:00 +25°C° 0.9 mm 2 mps 761 mmHg 79%
    21:00 +25°C° 0.9 mm 2 mps 762 mmHg 77%
    22:00 +25°C° 0.7 mm 2 mps 762 mmHg 80%
    23:00 +25°C° 0.7 mm 3 mps 762 mmHg 83%

    16 December, Sunday

    Time Temperature Precipitation Wind Pressure Humidity
    00:00 +25°C° 0.7 mm 3 mps 761 mmHg 86%
    01:00 +25°C° 0.3 mm 3 mps 761 mmHg 85%
    02:00 +24°C° 0.3 mm 3 mps 760 mmHg 85%
    03:00 +24°C° 0.3 mm 3 mps 760 mmHg 84%
    04:00 +24°C° 0.1 mm 3 mps 761 mmHg 85%
    05:00 +24°C° 0.1 mm 3 mps 761 mmHg 85%
    06:00 +24°C° 0.1 mm 3 mps 761 mmHg 85%
    07:00 +26°C° 0.2 mm 3 mps 762 mmHg 75%
    08:00 +28°C° 0.2 mm 3 mps 762 mmHg 65%
    09:00 +30°C° 0.2 mm 3 mps 762 mmHg 55%
    10:00 +32°C° 0.2 mm 4 mps 762 mmHg 56%
    11:00 +33°C° 0.2 mm 4 mps 761 mmHg 57%
    12:00 +33°C° 0.2 mm 4 mps 760 mmHg 58%
    13:00 +33°C° 0.7 mm 4 mps 760 mmHg 61%
    14:00 +32°C° 0.7 mm 4 mps 759 mmHg 64%
    15:00 +30°C° 0.7 mm 4 mps 759 mmHg 68%
    16:00 +29°C° 1.1 mm 4 mps 759 mmHg 75%
    17:00 +27°C° 1.1 mm 4 mps 760 mmHg 82%
    18:00 +25°C° 1.1 mm 3 mps 760 mmHg 88%
    19:00 +25°C° 1.3 mm 3 mps 760 mmHg 86%
    20:00 +25°C° 1.3 mm 3 mps 761 mmHg 83%
    21:00 +25°C° 1.3 mm 3 mps 761 mmHg 80%
    22:00 +25°C° 1.4 mm 3 mps 761 mmHg 82%
    23:00 +25°C° 1.4 mm 3 mps 761 mmHg 84%

    17 December, Monday

    Time Temperature Precipitation Wind Pressure Humidity
    00:00 +25°C° 1.4 mm 3 mps 760 mmHg 85%
    01:00 +25°C° 0.9 mm 3 mps 760 mmHg 87%
    02:00 +25°C° 0.9 mm 3 mps 760 mmHg 88%
    03:00 +25°C° 0.9 mm 3 mps 759 mmHg 89%
    04:00 +25°C° 0.7 mm 3 mps 760 mmHg 89%
    05:00 +25°C° 0.7 mm 3 mps 760 mmHg 90%
    06:00 +25°C° 0.7 mm 3 mps 761 mmHg 90%
    07:00 +26°C° 0.4 mm 3 mps 761 mmHg 85%
    08:00 +28°C° 0.4 mm 3 mps 761 mmHg 79%
    09:00 +29°C° 0.4 mm 3 mps 762 mmHg 74%
    10:00 +30°C° 0.6 mm 2 mps 761 mmHg 66%
    11:00 +32°C° 0.6 mm 2 mps 761 mmHg 59%
    12:00 +34°C° 0.6 mm 2 mps 760 mmHg 51%
    13:00 +32°C° 0.2 mm 2 mps 759 mmHg 54%
    14:00 +32°C° 0.2 mm 2 mps 759 mmHg 58%
    15:00 +31°C° 0.2 mm 2 mps 758 mmHg 61%
    16:00 +29°C° 0.1 mm 2 mps 759 mmHg 70%
    17:00 +27°C° 0.1 mm 2 mps 760 mmHg 79%
    18:00 +25°C° 0.1 mm 2 mps 760 mmHg 89%
    19:00 +25°C° 0.2 mm 2 mps 761 mmHg 84%
    20:00 +24°C° 0.2 mm 2 mps 761 mmHg 80%
    21:00 +24°C° 0.2 mm 2 mps 761 mmHg 75%
    22:00 +24°C° 0.1 mm 2 mps 761 mmHg 72%
    23:00 +24°C° 0.1 mm 3 mps 761 mmHg 69%
    Show more